THOR AGENA D R/B

Last updated on Sun Apr 12 2026 00:02:16 GMT+0000 (Coordinated Universal Time)

1 00733U 64002A 26101.31553191 .00000148 00000+0 69870-4 0 9999 2 00733 99.1203 116.4297 0033268 161.8608 198.3769 14.34037929242970
UTC large
Height (km)
Speed (km/s)
/
Latitude / Longitude
Inclination (degrees)
Orbital Period (minutes)
Azimuth
Elevation
Range (km)
Doppler Factor

Next 0 passes for location: London (51.5072 / 0.1276)

Sorry there are no passes over London.
THOR AGENA D R/B